OK2ILA-6 Weather Reports


time (UTC)temp
C
wind
direction
speed
KPH
gust
KPH
rain 1hr
cm
rain 24hr
cm
rain mn
cm
humidity
%
barometer
mb
20260905165002 21 0.0 0.0 0.00 0.00 0.00 46 1018.1
20260905164003 22 0.0 0.0 0.00 0.00 0.00 47 1018.0
20260905163003 22 0.0 0.0 0.00 0.00 0.00 46 1018.0
20260905162003 22 0.0 0.0 0.00 0.00 0.00 46 1018.0
20260905161003 22 0.0 0.0 0.00 0.00 0.00 45 1017.8
20260905160002 22 0.0 0.0 0.00 0.00 0.00 44 1017.6
20260905155003 22 0.0 0.0 0.00 0.00 0.00 44 1017.4
20260905154003 23 0.0 0.0 0.00 0.00 0.00 44 1017.4
20260905153003 23 0.0 0.0 0.00 0.00 0.00 43 1017.4
20260905152003 23 0.0 0.0 0.00 0.00 0.00 42 1017.4
20260905151002 23 0.0 0.0 0.00 0.00 0.00 42 1017.4
20260905150003 23 0.0 0.0 0.00 0.00 0.00 41 1017.3
20260905145003 23 0.0 0.0 0.00 0.00 0.00 41 1017.2
20260905144003 23 0.0 0.0 0.00 0.00 0.00 39 1017.0
20260905143003 23 0.0 0.0 0.00 0.00 0.00 42 1017.2
20260905142002 23 0.0 0.0 0.00 0.00 0.00 42 1017.1
20260905141003 23 0.0 0.0 0.00 0.00 0.00 42 1017.2
20260905140003 22 0.0 0.0 0.00 0.00 0.00 44 1017.1
20260905135003 23 0.0 0.0 0.00 0.00 0.00 45 1017.1
20260905134003 23 0.0 0.0 0.00 0.00 0.00 44 1017.0
20260905133002 23 0.0 0.0 0.00 0.00 0.00 44 1017.0
20260905132003 23 0.0 0.0 0.00 0.00 0.00 45 1017.0
20260905131003 23 0.0 0.0 0.00 0.00 0.00 45 1017.0
20260905130003 23 0.0 0.0 0.00 0.00 0.00 44 1016.7
20260905125002 23 0.0 0.0 0.00 0.00 0.00 42 1017.2
20260905124002 23 0.0 0.0 0.00 0.00 0.00 45 1017.2
20260905123003 23 0.0 0.0 0.00 0.00 0.00 45 1017.2
20260905122003 24 0.0 0.0 0.00 0.00 0.00 44 1017.1
20260905121003 23 0.0 0.0 0.00 0.00 0.00 44 1017.1
20260905120002 24 0.0 0.0 0.00 0.00 0.00 43 1017.2
20260905115002 23 0.0 0.0 0.00 0.00 0.00 46 1017.2
20260905114003 23 0.0 0.0 0.00 0.00 0.00 46 1017.2
20260905113003 23 0.0 0.0 0.00 0.00 0.00 46 1017.3
20260905112003 23 0.0 0.0 0.00 0.00 0.00 45 1017.4
20260905111002 23 0.0 0.0 0.00 0.00 0.00 46 1017.3
20260905110003 23 0.0 0.0 0.00 0.00 0.00 46 1017.4
20260905105003 23 0.0 0.0 0.00 0.00 0.00 46 1017.2
20260905104003 23 0.0 0.0 0.00 0.00 0.00 47 1017.2
20260905103003 23 0.0 0.0 0.00 0.00 0.00 48 1017.3
20260905102002 23 0.0 0.0 0.00 0.00 0.00 48 1017.3
20260905101003 23 0.0 0.0 0.00 0.00 0.00 49 1017.4
20260905100003 23 0.0 0.0 0.00 0.00 0.00 50 1017.5
20260905095003 22 0.0 0.0 0.00 0.00 0.00 50 1017.3
20260905094003 22 0.0 0.0 0.00 0.00 0.00 52 1017.4
20260905093002 22 0.0 0.0 0.00 0.00 0.00 50 1017.6
20260905092003 22 0.0 0.0 0.00 0.00 0.00 54 1017.2
20260905091003 22 0.0 0.0 0.00 0.00 0.00 58 1017.4
20260905090003 21 0.0 0.0 0.00 0.00 0.00 58 1017.4
20260905085002 21 0.0 0.0 0.00 0.00 0.00 62 1017.6
20260905084002 20 0.0 0.0 0.00 0.00 0.00 64 1017.6
20260905083003 20 0.0 0.0 0.00 0.00 0.00 67 1017.6
20260905082003 18 0.0 0.0 0.00 0.00 0.00 70 1017.4
20260905081003 18 0.0 0.0 0.00 0.00 0.00 72 1017.3
20260905080002 17 0.0 0.0 0.00 0.00 0.00 74 1017.0
20260905075002 17 0.0 0.0 0.00 0.00 0.00 74 1017.3
20260905074003 17 0.0 0.0 0.00 0.00 0.00 75 1017.0
20260905073003 17 0.0 0.0 0.00 0.00 0.00 76 1017.3
20260905072003 17 0.0 0.0 0.00 0.00 0.00 78 1017.3
20260905071002 17 0.0 0.0 0.00 0.00 0.00 78 1017.0
20260905070003 16 0.0 0.0 0.00 0.00 0.00 78 1017.0
20260905065003 16 0.0 0.0 0.00 0.00 0.00 78 1016.9
20260905064003 16 0.0 0.0 0.00 0.00 0.00 78 1017.0
20260905063003 16 0.0 0.0 0.00 0.00 0.00 79 1017.0
20260905062003 17 0.0 0.0 0.00 0.00 0.00 78 1016.6
20260905061003 16 0.0 0.0 0.00 0.00 0.00 77 1016.2
20260905060003 16 0.0 0.0 0.00 0.00 0.00 74 1016.0
20260905055003 16 0.0 0.0 0.00 0.00 0.00 73 1016.0
20260905054003 17 0.0 0.0 0.00 0.00 0.00 72 1015.6
20260905053002 17 0.0 0.0 0.00 0.00 0.00 72 1015.7
20260905052003 17 0.0 0.0 0.00 0.00 0.00 64 1016.0
20260905051003 18 0.0 0.0 0.00 0.00 0.00 61 1015.8
20260905050003 18 0.0 0.0 0.00 0.00 0.00 61 1015.6
20260905045002 19 0.0 0.0 0.00 0.00 0.00 60 1015.2
20260905044002 18 0.0 0.0 0.00 0.00 0.00 66 1015.4
20260905043003 18 0.0 0.0 0.00 0.00 0.00 66 1014.8
20260905042003 18 0.0 0.0 0.00 0.00 0.00 69 1015.1
20260905041003 18 0.0 0.0 0.00 0.00 0.00 70 1014.4
20260905040002 18 0.0 0.0 0.00 0.00 0.00 74 1014.4
20260905035002 18 0.0 0.0 0.00 0.00 0.00 74 1014.4
20260905034003 18 0.0 0.0 0.00 0.00 0.00 76 1014.4
20260905033003 18 0.0 0.0 0.00 0.00 0.00 76 1014.0
20260905032003 18 0.0 0.0 0.00 0.00 0.00 75 1014.1
20260905031002 18 0.0 0.0 0.00 0.00 0.00 74 1013.9
20260905030002 18 0.0 0.0 0.00 0.00 0.00 74 1013.4
20260905025003 18 0.0 0.0 0.00 0.00 0.00 73 1013.7
20260905024003 18 0.0 0.0 0.00 0.00 0.00 72 1013.6
20260905023003 19 0.0 0.0 0.00 0.00 0.00 72 1013.6
20260905022003 19 0.0 0.0 0.00 0.00 0.00 72 1014.0
20260905021002 19 0.0 0.0 0.00 0.00 0.00 72 1013.9
20260905020003 19 0.0 0.0 0.00 0.00 0.00 73 1013.6
20260905015003 19 0.0 0.0 0.00 0.00 0.00 72 1013.7
20260905014003 19 0.0 0.0 0.00 0.00 0.00 72 1013.8
20260905013002 19 0.0 0.0 0.00 0.00 0.00 70 1013.6
20260905012003 19 0.0 0.0 0.00 0.00 0.00 71 1013.6
20260905011003 19 0.0 0.0 0.00 0.00 0.00 70 1013.6
20260905010003 20 0.0 0.0 0.00 0.00 0.00 70 1013.4
20260905005003 20 0.0 0.0 0.00 0.00 0.00 70 1013.4
20260905004002 19 0.0 0.0 0.00 0.00 0.00 69 1013.1
20260905003003 19 0.0 0.0 0.00 0.00 0.00 69 1013.1
20260905002003 20 0.0 0.0 0.00 0.00 0.00 68 1013.1
20260905001003 20 0.0 0.0 0.00 0.00 0.00 68 1013.0
20260905000003 20 0.0 0.0 0.00 0.00 0.00 68 1012.8
20260904235002 20 0.0 0.0 0.00 0.00 0.00 68 1012.8
20260904234003 20 0.0 0.0 0.00 0.00 0.00 68 1012.6
20260904233003 20 0.0 0.0 0.00 0.00 0.00 68 1012.6
20260904232003 20 0.0 0.0 0.00 0.00 0.00 68 1012.4
20260904231002 20 0.0 0.0 0.00 0.00 0.00 68 1012.5
20260904230002 20 0.0 0.0 0.00 0.00 0.00 68 1012.4
20260904225003 20 0.0 0.0 0.00 0.00 0.00 68 1012.2
20260904224003 21 0.0 0.0 0.00 0.00 0.00 68 1012.2
20260904223002 21 0.0 0.0 0.00 0.00 0.00 67 1012.0
20260904222002 21 0.0 0.0 0.00 0.00 0.00 66 1011.6
20260904221003 21 0.0 0.0 0.00 0.00 0.00 64 1011.4
20260904220003 22 0.0 0.0 0.00 0.00 0.00 62 1011.2
20260904215003 22 0.0 0.0 0.00 0.00 0.00 61 1011.0
20260904214002 24 0.0 0.0 0.00 0.00 0.00 58 1010.8
20260904213002 24 0.0 0.0 0.00 0.00 0.00 55 1010.0
20260904212003 24 0.0 0.0 0.00 0.00 0.00 54 1009.6
20260904211003 24 0.0 0.0 0.00 0.00 0.00 56 1009.7
20260904210003 24 0.0 0.0 0.00 0.00 0.00 56 1009.8
20260904205002 24 0.0 0.0 0.00 0.00 0.00 55 1009.6
20260904204002 24 0.0 0.0 0.00 0.00 0.00 54 1009.6
20260904203003 25 0.0 0.0 0.00 0.00 0.00 54 1009.5
20260904202003 25 0.0 0.0 0.00 0.00 0.00 54 1009.5
20260904201003 25 0.0 0.0 0.00 0.00 0.00 54 1009.4
20260904200002 25 0.0 0.0 0.00 0.00 0.00 54 1009.4
20260904195003 25 0.0 0.0 0.00 0.00 0.00 56 1009.7
20260904194003 24 0.0 0.0 0.00 0.00 0.00 56 1010.0
20260904193003 25 0.0 0.0 0.00 0.00 0.00 55 1010.0
20260904192002 25 0.0 0.0 0.00 0.00 0.00 56 1010.1
20260904191002 25 0.0 0.0 0.00 0.00 0.00 55 1010.4
20260904190003 25 0.0 0.0 0.00 0.00 0.00 56 1010.6
20260904185003 25 0.0 0.0 0.00 0.00 0.00 55 1010.6
20260904184003 25 0.0 0.0 0.00 0.00 0.00 54 1010.5
20260904183002 26 0.0 0.0 0.00 0.00 0.00 52 1010.6
20260904182002 26 0.0 0.0 0.00 0.00 0.00 51 1010.6
20260904181003 26 0.0 0.0 0.00 0.00 0.00 52 1010.5
20260904180003 26 0.0 0.0 0.00 0.00 0.00 52 1010.2
20260904175003 25 0.0 0.0 0.00 0.00 0.00 52 1010.0
20260904174002 25 0.0 0.0 0.00 0.00 0.00 53 1009.6
20260904173002 26 0.0 0.0 0.00 0.00 0.00 52 1009.8
20260904172003 26 0.0 0.0 0.00 0.00 0.00 51 1009.8
20260904171003 26 0.0 0.0 0.00 0.00 0.00 50 1009.8
20260904170002 26 0.0 0.0 0.00 0.00 0.00 50 1009.6